sat.trackr.live / text

‹ back to catalog

STARLINK-35079

NORAD 65649 · 2025-210AD

PAYLOAD ACTIVE UNKNOWN

§ Identity

Operator
Country
US
Launch date
2025-09-18
Launch site
AFETR
Launch vehicle
Mass (kg)
RCS (m²)

Purposes: comms

External: N2YO · Heavens-Above · Gunter

§ Orbital elements

Epoch: 2026-05-24T16:20:33.692064Z

Period
94.11 min
Inclination
53.1588°
Eccentricity
0.0000774
Mean motion
15.30204285 rev/d
Perigee alt
474.7 km
Apogee alt
475.7 km
Semi-major
6,853.3 km
B*
4.4863e-4
RAAN
314.2412°
Arg perigee
73.8874°
Mean anomaly
286.2212°
Rev number
3,936

§ Raw data

STARLINK-350791 65649U 25210AD  26144.68094551  .00012953  00000+0  44863-3 0  99922 65649  53.1588 314.2412 0000774  73.8874 286.2212 15.30204285 39368

JSON: /api/v1/satellites/65649 · /tle

For live sub-satellite position, see the globe view (requires WebGL).

§ Visibility from observer

Set your observer location to see the next 7 days of passes ≥ 10°. The values pass through the URL so the page stays shareable.

No JS? Fill the form by hand. The geolocation button needs JavaScript.